Regional Weather Roundup
Issued by NWS

Home | Current Version | Previous Version | Graphics & Text | Print | Product List | Glossary On
Versions: 1 2 3 4 5 6 7 8 9 10 11 12 13 14 15 16 17 18 19 20 21 22 23 24 25 26 27 28 29 30 31 32 33 34 35 36 37 38 39 40 41 42 43 44 45 46 47 48 49 50
000
ASUS43 KMKX 280059
RWRWI

WISCONSIN REGIONAL WEATHER ROUNDUP
NATIONAL WEATHER SERVICE MILWAUKEE/SULLIVAN WI
700 PM CST TUE JAN 27 2015

NOTE: "FAIR" INDICATES FEW OR NO CLOUDS BELOW 12,000 FEET WITH NO
SIGNIFICANT WEATHER AND/OR OBSTRUCTIONS TO VISIBILITY.

WIZ001-002-006>008-014>016-023>028-280200-
NORTHWEST WISCONSIN

CITY           SKY/WX    TMP DP  RH WIND       PRES   REMARKS
SUPERIOR ARPT  CLOUDY    29  24  82 S5        30.16R WCI  24
ASHLAND        CLOUDY    28  21  75 S5        30.17S WCI  23
HAYWARD        CLOUDY    27  21  78 SE7       30.15R WCI  19
SIREN          CLOUDY    30  23  77 S6        30.15R WCI  24
CUMBERLAND     CLOUDY    28  21  74 SE7       30.15R WCI  21
RICE LAKE      CLOUDY    28  21  78 SE7       30.17R WCI  20
CHETEK         CLOUDY    27  21  77 E6        30.17R WCI  21
LADYSMITH      CLOUDY    27  22  83 SE6       30.17F WCI  20
EAU CLAIRE     NOT AVBL
MENOMONIE      MOCLDY    29  22  74 SE7       30.18R WCI  22
NEW RICHMOND   CLOUDY    29  23  79 SE8       30.16R WCI  21
OSCEOLA        CLOUDY    30  25  81 SE8       30.18S WCI  23
$$

WIZ003>005-009-010-017-018-280200-
NORTH CENTRAL WISCONSIN

CITY           SKY/WX    TMP DP  RH WIND       PRES   REMARKS
MANITOWISH WTR CLOUDY    23  19  83 SW3       30.15R
ARBOR VITAE    CLOUDY    24  20  83 CALM      30.15R
WOODRUFF       CLOUDY    24  20  83 CALM      30.15R
RHINELANDER    CLOUDY    22  17  81 S5        30.16S WCI  16
EAGLE RIVER    CLOUDY    23  17  80 CALM      30.15S
LAND O LAKES   CLOUDY    24  19  84 W3        30.16R
PHILLIPS       CLOUDY    24  19  83 S3        30.15R
TOMAHAWK       CLOUDY    23  19  85 CALM      30.17S
MEDFORD        CLOUDY    23  19  86 SE3       30.15F
MERRILL        CLOUDY    24  19  80 S3        30.18F
$$

WIZ029-030-035-036-043>047-280200-
CENTRAL WISCONSIN

CITY           SKY/WX    TMP DP  RH WIND       PRES   REMARKS
WAUSAU         CLOUDY    24  19  81 SE6       30.17F WCI  17
MOSINEE        CLOUDY    25  23  93 SE3       30.19F
MARSHFIELD     CLOUDY    25  20  81 SE5       30.17F WCI  19
STEVENS POINT  CLOUDY    23  19  87 SE3       30.21S
WAUPACA        CLOUDY    27  20  73 CALM      30.24R
WAUTOMA        NOT AVBL
WISC RAPIDS    CLOUDY    25  21  85 SE5       30.21F WCI  19
CAMP DOUGLAS   NOT AVBL
$$

WIZ011>013-019>022-031-037>040-048>050-280200-
NORTHEAST WISCONSIN

CITY           SKY/WX    TMP DP  RH WIND       PRES   REMARKS
ANTIGO         CLOUDY    22  19  86 SW5       30.18S WCI  16
SHAWANO        CLOUDY    26  18  71 CALM      30.24S
OCONTO         MOCLDY    16  14  94 CALM      30.26R
STURGEON BAY   PTCLDY    16  12  86 CALM      30.26S
GREEN BAY      PTCLDY    20  16  84 CALM      30.25R
MANITOWOC      NOT AVBL
APPLETON       CLOUDY    25  16  68 VRB3      30.23F
CLINTONVILLE   CLOUDY    27  19  74 CALM      30.24R
OSHKOSH        CLOUDY    25  17  72 CALM      30.23F
$$

WIZ032>034-041-042-053>061-280200-
SOUTHWEST WISCONSIN

CITY           SKY/WX    TMP DP  RH WIND       PRES   REMARKS
LA CROSSE      CLOUDY    30  22  72 S7        30.21R WCI  23
SPARTA         CLOUDY    27  22  81 S5        30.21S WCI  21
VIROQUA        CLOUDY    25  22  85 SE5       30.17R WCI  20
BOSCOBEL       CLOUDY    28  21  75 S3        30.22S
PRAIRIE DU CHI CLOUDY    28  20  71 SE3       30.22R
PLATTEVILLE    CLOUDY    27  24  86 CALM      30.19F
$$

WIZ056-057-062-063-064-067-068-280200-
SOUTH CENTRAL WISCONSIN

CITY           SKY/WX    TMP DP  RH WIND       PRES   REMARKS
REEDSBURG      CLOUDY    26  25  95 CALM      30.20F FOG
BARABOO/DELLS  CLOUDY    26  24  93 E3        30.21S FOG
LONE ROCK      NOT AVBL
MINERAL POINT  CLOUDY    30  25  80 SE5       30.18F WCI  25
MADISON        CLOUDY    27  21  78 E3        30.21F
MIDDLETON      CLOUDY    29  25  87 CALM      30.22S
WATERTOWN      CLOUDY    28  21  76 CALM      30.23S
MONROE         CLOUDY    28  28 100 CALM      30.20S FOG
JANESVILLE     CLOUDY    30  27  86 CALM      30.22S
$$

WIZ051-052-058>065-066-070>072-280200-
SOUTHEAST WISCONSIN

CITY           SKY/WX    TMP DP  RH WIND       PRES   REMARKS
MILWAUKEE      MOCLDY    27  17  66 N3        30.25R
WAUKESHA       CLOUDY    23  16  74 E3        30.24S
MILWAUKEE/TIMM CLOUDY    27  16  63 CALM      30.25R
RACINE         CLOUDY    26  17  68 N6        30.26S WCI  19
BURLINGTON     PTCLDY    20  15  78 CALM      30.25R
KENOSHA        CLEAR     22  16  78 NE3       30.25R
FOND DU LAC    CLOUDY    25  17  72 CALM      30.23F
SHEBOYGAN      CLOUDY    25  18  74 CALM      30.25R
WEST BEND      CLOUDY    27  19  74 CALM      30.23S
JUNEAU         CLOUDY    26  19  77 CALM      30.24S
$$

LSZ147-162-280200-
LAKE SUPERIOR

STATION/POSITION TIME  TEMP    WIND        PRES    WAVE
                       AIR SEA DIR/SP/G            HT/PER
                 (UTC) (F)     (DEG/KT/KT) (MB)    (FT/S)
DEVILS ISLAND    0000   29     150/  2/  3 1022.7R
PORT WING        0000   30     180/  4/  4 1021.7R
SAXON HARBOR     0000   29        CALM     1022.0R
$$

LMZ867-665-643>646-280200-
LAKE MICHIGAN

STATION/POSITION TIME  TEMP    WIND        PRES    WAVE
                       AIR SEA DIR/SP/G            HT/PER
                 (UTC) (F)     (DEG/KT/KT) (MB)    (FT/S)
NORTHPORT PIER   0000   19      CALM  /  2 1024.4S
SISTER BAY       0013   17        CALM       N/A
KEWAUNEE LAKESHO 0000   26      CALM  /  7 1023.4S
SHEBOYGAN LAKESH 0000   27      10/ 11/ 13 1025.3F
PORT WASHINGTON  0000   27      30/  4/  6 1025.1R
MILWAUKEE LAKESH 0000   28     360/  4/  6   N/A
KENOSHA   LAKESH 0000   27      20/  7/ 12 1024.0S
$$

TC  - TEMPERATURE IN CELSIUS
VSB - VISIBILITY IN STATUTE MILES
WCI - WIND CHILL INDEX
HX  - HEAT INDEX



USA.gov is the U.S. government's official web portal to all federal, state and local government web resources and services.